Theta_e
297 297 297 296 296 296 296 295 295 294 294 293 293 293 293 293 292 292 292 292 291 291 291 290 289 289 289 289 289 288 288 288 288 288 288 288 288 288 288 288 288 288
297 296 296 296 296 296 296 295 295 294 294 294 294 294 293 293 292 292 292 292 291 291 290 290 289 289 289 288 288 288 288 287 287 288 288 287 287 287 287 288 287 287
296 296 296 296 296 296 295 295 294 294 294 294 294 294 293 292 292 292 292 291 291 291 290 290 289 288 288 288 288 288 287 287 287 287 287 287 287 287 287 287 286 286
296 296 296 296 295 295 295 294 294 294 294 294 293 293 293 292 292 291 291 291 291 290 290 289 289 288 288 288 287 287 287 287 287 287 286 286 286 286 286 286 285 285
295 296 296 295 295 295 295 295 294 294 293 293 293 293 292 292 292 291 291 291 290 290 289 289 288 288 288 287 287 287 287 286 286 286 286 286 286 286 285 285 285 284
295 296 295 295 295 295 295 295 294 294 294 294 293 293 292 292 292 291 291 291 290 290 289 288 288 287 287 287 286 286 286 286 286 285 285 285 285 285 285 285 284 284
295 295 295 295 295 295 295 295 295 295 295 294 294 293 293 292 292 291 291 291 290 289 289 288 288 287 287 286 286 286 286 285 285 285 285 285 285 285 284 284 284 284
295 295 295 295 295 295 295 295 295 295 294 294 294 293 293 292 292 291 291 290 290 289 289 288 288 288 287 286 285 285 285 285 284 284 284 284 284 284 284 284 283 283
295 295 295 294 294 295 295 295 295 294 294 294 293 293 292 292 292 291 290 290 289 289 289 288 288 288 287 286 286 285 285 284 284 284 284 284 283 284 284 283 283 282
296 295 295 295 294 294 295 295 295 294 293 293 293 292 292 291 291 291 290 290 289 289 288 288 288 287 287 286 286 285 285 284 284 284 284 284 284 284 284 283 283 282
296 296 295 295 295 295 295 295 294 293 293 293 292 292 291 291 291 290 290 290 289 289 289 288 288 287 287 286 285 285 285 284 284 283 283 283 284 284 284 284 283 283
296 295 295 295 295 295 295 294 294 293 293 293 292 292 291 291 290 290 290 290 290 289 288 288 287 287 286 286 285 285 284 284 283 283 283 283 283 283 283 283 283 283
296 296 296 295 295 295 295 294 294 293 293 293 292 292 291 290 290 290 290 290 289 288 288 288 287 287 286 286 285 285 284 284 283 283 282 282 282 282 283 283 283 282
296 296 296 296 295 295 294 294 294 294 293 293 292 291 291 291 290 290 289 289 288 288 288 287 287 286 286 285 285 285 284 283 283 282 282 281 282 282 282 282 282 282
295 296 296 296 296 295 294 294 294 293 293 292 292 291 291 290 290 289 289 288 288 287 287 287 286 286 285 285 285 284 284 283 282 282 281 281 281 281 281 281 281 281
293 294 295 295 295 295 294 294 293 293 293 292 292 291 290 290 289 288 288 288 287 287 286 286 286 285 285 285 285 285 284 283 282 282 281 281 281 280 280 280 280 280
291 292 293 294 294 294 294 294 293 293 292 292 291 290 290 289 288 288 288 287 287 287 286 286 285 285 285 285 285 285 284 283 282 281 281 280 280 280 279 279 279 279
289 290 291 292 293 293 294 293 293 292 292 291 291 290 289 289 288 288 287 287 287 286 286 285 285 285 285 284 284 284 284 283 282 281 281 280 279 279 279 279 278 278
289 289 289 290 291 291 292 292 292 291 291 291 290 290 289 288 288 287 287 286 286 286 285 285 285 284 284 284 284 284 284 283 282 281 280 280 279 279 279 278 278 278
289 288 288 288 289 290 290 290 290 291 290 290 290 289 288 288 287 287 286 286 286 285 285 285 284 284 284 283 284 284 283 283 282 281 280 279 279 279 278 278 278 278
289 289 288 288 288 288 289 289 290 290 289 289 289 288 287 287 286 286 286 285 285 285 284 284 284 283 283 283 283 284 283 283 281 280 279 279 279 278 278 278 278 279
288 288 288 288 288 287 288 288 288 288 288 288 287 287 287 286 286 285 285 285 284 284 284 283 283 283 283 283 284 284 284 283 281 280 279 278 278 278 278 278 278 279
288 288 288 288 287 287 287 287 287 287 287 287 286 286 285 285 285 285 284 284 284 283 283 283 282 282 282 283 284 284 284 283 281 279 278 278 278 277 277 277 278 278
287 287 287 287 287 286 286 286 286 286 286 285 285 285 285 284 284 284 283 283 283 283 283 282 282 282 282 283 284 284 284 283 280 279 278 277 277 277 277 277 277 277
286 286 286 287 287 287 286 285 285 285 285 284 284 284 284 284 283 283 283 282 282 282 282 282 281 281 281 283 285 285 284 283 280 278 278 277 277 276 276 276 276 276
286 286 286 286 286 287 286 285 285 284 284 284 283 283 283 283 282 282 282 282 281 281 281 281 281 280 281 283 285 285 285 283 280 278 278 277 277 276 276 276 276 276
Wind_Speed
41 40 41 41 40 41 41 42 42 42 43 44 46 48 49 48 48 49 51 51 51 51 51 50 50 48 47 45 44 43 41 40 39 38 36 35 33 32 30 29 27 25
40 41 41 41 41 42 41 41 42 42 43 45 46 46 45 46 46 48 50 51 51 51 51 51 50 49 48 47 45 44 43 41 40 39 38 36 35 33 32 30 28 27
39 40 41 42 42 40 39 38 39 41 42 43 44 44 44 44 45 46 48 50 51 51 51 51 50 49 49 48 47 45 44 43 42 41 39 38 36 35 34 32 30 28
39 39 39 39 37 35 35 36 37 39 40 41 42 42 42 41 42 44 46 48 49 49 50 50 50 50 49 48 47 46 46 45 44 42 40 39 38 36 35 33 31 29
36 38 38 37 35 33 33 35 37 38 38 39 39 39 40 40 41 43 45 46 48 48 48 48 49 49 49 48 48 47 46 45 44 43 41 40 39 38 36 34 32 31
35 38 39 38 37 36 36 37 37 38 39 39 39 39 39 40 42 43 45 46 47 47 47 47 47 47 47 47 47 47 47 46 45 43 42 42 41 39 37 35 34 33
36 37 38 38 38 38 39 39 39 41 42 42 41 42 41 42 43 44 45 46 47 47 47 47 47 46 46 46 46 46 46 46 45 44 43 43 41 40 38 37 36 35
33 33 33 34 36 37 39 41 42 44 44 43 44 45 44 44 44 43 44 44 45 46 47 47 47 47 46 46 46 46 45 45 45 45 44 43 41 41 41 39 37 36
30 30 30 31 34 37 40 42 44 44 42 42 43 42 42 43 43 43 42 42 43 44 45 46 47 48 47 48 48 47 47 46 45 46 45 44 44 43 42 40 39 37
30 31 31 32 35 38 41 44 44 41 40 41 40 39 39 41 41 42 42 42 43 44 45 47 48 48 48 48 49 48 48 47 46 47 47 47 46 46 44 43 41 40
31 31 32 35 37 40 43 43 41 39 39 39 39 39 40 40 41 42 43 44 46 46 47 48 48 48 48 48 48 48 47 47 47 47 48 48 47 47 46 45 44 43
29 30 33 36 39 42 43 41 38 37 38 39 40 40 40 41 41 43 44 46 48 48 48 48 47 47 48 48 48 47 47 46 46 47 48 48 47 46 46 46 45 44
28 30 33 36 38 40 40 38 37 37 39 41 41 41 41 42 43 44 46 47 47 46 47 47 47 47 47 47 47 47 47 47 47 46 46 46 46 46 46 46 45 44
31 32 33 35 36 37 36 36 37 38 40 41 40 41 43 44 44 45 45 44 44 44 45 45 45 46 46 46 47 47 48 48 47 46 45 44 44 44 44 44 44 43
33 34 34 35 35 35 36 37 38 38 39 39 40 41 42 42 42 42 41 41 42 42 42 42 44 46 48 48 48 48 48 48 47 46 45 44 43 43 42 43 43 43
30 32 33 35 35 35 36 37 37 37 37 37 39 39 39 38 38 39 40 41 41 40 40 42 44 46 48 49 51 50 49 47 45 45 45 44 43 42 41 41 42 42
28 28 29 31 33 34 36 36 36 35 35 36 36 36 36 35 36 38 40 40 40 40 41 43 45 46 47 49 50 50 48 46 44 44 44 44 44 43 43 42 41 41
28 27 25 26 28 30 34 35 34 33 33 33 33 34 34 35 37 39 40 40 40 40 42 43 44 45 46 47 49 50 49 47 45 44 44 44 44 44 43 42 41 40
30 28 26 25 25 26 28 29 30 31 30 31 32 32 33 35 37 38 39 39 39 40 41 42 42 42 44 45 47 49 50 48 45 43 44 43 43 43 42 42 41 40
34 33 31 30 29 27 25 24 25 27 28 29 30 30 32 34 36 37 38 38 39 39 39 40 40 41 42 43 45 46 48 48 45 42 42 42 42 42 42 43 42 41
35 35 34 34 33 31 27 24 24 25 26 28 28 30 32 34 34 35 36 37 37 38 37 38 39 39 39 41 43 44 45 46 44 40 39 39 40 41 42 42 43 43
34 34 34 34 34 32 29 27 26 25 26 26 26 28 29 30 31 32 34 35 36 36 36 36 36 36 38 39 40 40 40 41 41 38 36 36 37 38 39 40 42 43
32 32 32 33 32 31 28 27 26 25 25 24 24 25 27 28 29 30 32 33 34 34 35 34 33 34 36 36 37 38 38 38 38 37 35 34 35 36 37 38 40 42
30 30 30 30 30 29 28 26 25 24 23 22 23 25 26 27 27 28 29 30 31 33 34 33 32 32 34 34 35 37 38 39 38 36 34 32 32 33 34 36 38 39
28 28 28 28 28 28 27 26 25 23 22 21 21 23 24 25 24 25 26 27 29 31 32 32 31 31 32 33 34 36 38 39 38 36 34 32 31 31 32 33 35 36
26 27 27 27 27 27 27 26 24 22 21 20 20 21 22 22 22 23 25 26 27 28 29 30 30 30 31 32 33 35 37 39 39 37 35 33 32 33 33 33 34 34
Wind_Direction
213 212 212 213 214 214 213 211 210 209 210 211 212 215 216 216 215 214 215 216 217 218 219 220 220 220 220 219 219 218 218 218 218 217 215 213 213 213 213 213 212 212
215 215 214 214 215 216 215 214 213 212 213 215 216 217 218 217 216 215 215 215 216 217 218 219 219 219 219 218 217 217 217 217 217 216 215 214 213 213 213 214 213 212
217 217 217 217 217 217 216 216 216 216 216 217 218 218 218 217 216 216 216 215 215 216 217 218 218 218 218 218 216 216 216 216 216 216 215 214 214 214 213 213 213 212
220 220 221 222 222 221 219 218 219 219 219 219 219 219 218 217 216 215 215 215 215 215 215 216 217 217 217 216 215 215 215 216 216 215 214 213 213 214 213 212 212 212
224 223 224 225 225 225 224 223 222 222 221 221 221 221 220 218 217 215 214 214 214 214 214 214 215 216 215 215 214 213 213 214 215 214 213 212 212 213 213 212 210 211
230 227 226 225 224 224 225 226 226 225 225 225 224 224 223 221 219 217 215 214 213 213 213 213 214 214 214 213 212 212 212 212 212 212 212 212 212 212 212 211 211 211
233 231 228 227 225 225 226 227 227 228 228 227 226 225 225 223 222 220 218 216 214 212 212 212 212 213 213 212 211 211 211 211 211 211 211 211 211 210 211 211 211 211
241 238 235 232 229 228 228 228 229 229 228 226 225 225 224 223 222 220 219 217 214 213 212 211 212 212 212 211 211 210 210 210 210 209 209 208 209 209 210 210 211 211
249 247 244 240 235 233 232 231 231 231 229 227 226 224 223 223 221 220 219 217 216 215 213 212 212 212 212 211 211 210 209 209 209 209 208 207 208 209 209 209 209 210
250 248 246 244 241 239 238 236 235 232 230 228 227 225 224 223 222 220 219 217 217 216 215 214 212 211 211 211 212 211 210 210 209 209 209 209 209 209 208 208 208 209
253 249 245 243 242 242 242 241 239 235 232 231 227 226 225 223 221 219 218 217 217 217 216 215 214 212 210 211 211 211 211 211 210 209 210 210 210 209 209 209 209 209
260 253 249 246 245 244 244 243 241 237 234 232 229 226 225 223 221 219 218 219 219 218 216 216 215 213 212 211 210 210 210 211 211 211 210 210 209 210 210 210 210 210
274 265 258 253 251 249 248 246 243 240 237 234 230 227 224 222 221 220 220 220 219 218 217 216 215 214 213 212 210 210 209 210 211 211 211 209 209 209 209 210 210 209
291 281 272 265 260 256 253 249 245 242 239 236 232 228 225 223 222 221 221 220 219 219 218 216 215 214 213 211 210 210 209 209 209 210 209 208 208 209 209 209 209 209
306 295 286 278 271 264 258 253 248 244 240 237 233 230 228 225 224 222 221 220 219 219 218 216 215 215 213 211 210 209 209 209 208 208 208 207 206 207 208 208 208 209
318 306 295 285 276 268 262 256 250 245 240 237 234 232 229 227 224 223 221 220 218 217 216 216 216 216 215 214 213 211 209 207 207 207 207 206 205 204 205 206 207 208
334 321 307 292 280 272 265 259 253 247 242 238 234 232 230 227 225 223 221 220 218 217 216 217 217 218 216 215 215 213 210 207 206 206 206 206 205 203 202 203 204 205
348 338 324 307 291 278 269 262 256 249 243 239 236 233 230 227 225 224 222 220 218 217 217 218 219 218 217 215 214 213 212 209 207 206 205 205 205 204 202 201 200 201
355 349 339 327 312 295 279 267 258 251 246 242 239 236 231 227 226 225 223 221 219 218 218 219 219 219 217 216 214 214 213 211 208 206 205 205 205 204 202 201 199 198
357 354 348 341 333 320 302 283 269 260 253 247 241 236 232 229 228 226 224 222 220 219 219 220 220 219 217 215 214 213 213 212 209 207 206 206 206 205 203 202 199 197
357 354 350 346 342 334 320 303 286 272 261 252 243 237 233 230 229 227 226 224 222 221 220 220 220 218 216 215 213 212 212 211 209 207 206 206 207 206 205 203 201 200
356 353 350 347 345 339 329 314 299 284 270 259 248 241 237 234 232 230 228 226 224 221 221 221 220 218 215 213 211 209 209 208 207 206 205 205 206 206 206 204 202 202
354 353 350 347 343 338 329 319 307 292 279 266 253 246 240 236 235 233 230 228 225 222 221 220 219 217 214 211 206 204 204 204 204 204 203 204 205 205 204 203 204 204
351 351 348 345 342 336 328 321 311 299 286 272 259 251 245 241 239 236 233 231 227 225 223 221 220 216 212 207 203 201 203 202 200 199 200 202 203 202 202 203 204 204
347 348 346 344 340 335 329 322 314 305 293 279 266 257 251 247 244 239 237 234 231 228 225 222 221 216 209 205 201 199 201 201 198 196 197 198 198 197 198 201 202 202
340 342 342 341 338 335 330 324 317 308 298 286 274 264 256 251 247 243 240 237 233 231 227 223 222 217 209 205 200 199 202 201 197 196 196 195 194 193 194 196 199 199